Location: Unspecified
(0.0000°N, 0.0000°E)
Time: 12:29:13
(UTC+00:00)

ACS3 Solar Sail - Pass Details

Date: 10 May 2025
Orbit: 935 x 1009 km, 97.5° (Epoch: 13 May)

Event Time Altitude Azimuth Distance (km) Brightness Sun altitude
Rises 18:48:12 0° 206° (SSW) 3,696 4.9 -12.3°
Reaches altitude 10° 18:52:17 10° 232° (SW) 2,728 4.6 -13.3°
Maximum altitude 18:54:52 13° 257° (WSW) 2,508 4.9 -13.9°
Drops below altitude 10° 18:57:26 10° 283° (WNW) 2,702 5.5 -14.5°
Sets 19:01:28 0° 310° (NW) 3,627 6.2 -15.5°
